• In Austria
  • List of Countries
  • For 7 days
  • Water Temperature
  • Satellite Maps
  • Weather Map
  • News
  • Weather Widgets
  • user-avatar
    Login

    Hourly Weather Artashat

    Today, 20 May, Sunday

    Time Temperature Precipitation Wind Pressure Humidity
    00:00 +13°C° 0 mm 1 mps 605 mmHg 59%
    01:00 +12°C° 0 mm 1 mps 605 mmHg 60%
    02:00 +12°C° 0 mm 1 mps 604 mmHg 62%
    03:00 +11°C° 0 mm 1 mps 604 mmHg 56%
    04:00 +12°C° 0 mm 1 mps 604 mmHg 56%
    05:00 +12°C° 0 mm 1 mps 604 mmHg 56%
    06:00 +13°C° 0 mm 1 mps 605 mmHg 56%
    07:00 +14°C° 0 mm 1 mps 605 mmHg 52%
    08:00 +15°C° 0 mm 1 mps 605 mmHg 47%
    09:00 +16°C° 0 mm 1 mps 606 mmHg 44%
    10:00 +17°C° 0.1 mm 2 mps 606 mmHg 42%
    11:00 +18°C° 0.1 mm 2 mps 606 mmHg 41%
    12:00 +19°C° 0.1 mm 2 mps 606 mmHg 39%
    13:00 +19°C° 0.6 mm 2 mps 606 mmHg 40%
    14:00 +19°C° 0.6 mm 3 mps 605 mmHg 40%
    15:00 +19°C° 0.6 mm 3 mps 605 mmHg 40%
    16:00 +19°C° 0.5 mm 3 mps 605 mmHg 43%
    17:00 +18°C° 0.5 mm 3 mps 605 mmHg 47%
    18:00 +17°C° 0.5 mm 2 mps 604 mmHg 50%
    19:00 +16°C° 0.2 mm 2 mps 604 mmHg 54%
    20:00 +15°C° 0.2 mm 1 mps 604 mmHg 57%
    21:00 +15°C° 0.2 mm 1 mps 604 mmHg 61%
    22:00 +14°C° 0.1 mm 1 mps 604 mmHg 61%
    23:00 +14°C° 0.1 mm 1 mps 604 mmHg 62%

    Tomorrow, 21 May, Monday

    Time Temperature Precipitation Wind Pressure Humidity
    00:00 +13°C° 0.1 mm 1 mps 603 mmHg 62%
    01:00 +13°C° 0 mm 1 mps 603 mmHg 64%
    02:00 +12°C° 0 mm 1 mps 603 mmHg 65%
    03:00 +12°C° 0 mm 1 mps 603 mmHg 67%
    04:00 +12°C° 0 mm 1 mps 603 mmHg 65%
    05:00 +13°C° 0 mm 1 mps 603 mmHg 64%
    06:00 +13°C° 0 mm 1 mps 603 mmHg 62%
    07:00 +15°C° 0.1 mm 2 mps 604 mmHg 55%
    08:00 +16°C° 0.1 mm 2 mps 604 mmHg 49%
    09:00 +18°C° 0.1 mm 3 mps 605 mmHg 42%
    10:00 +19°C° 0.1 mm 3 mps 605 mmHg 39%
    11:00 +20°C° 0.1 mm 3 mps 605 mmHg 36%
    12:00 +21°C° 0.1 mm 3 mps 605 mmHg 33%
    13:00 +21°C° 0.3 mm 3 mps 605 mmHg 34%
    14:00 +21°C° 0.3 mm 4 mps 605 mmHg 35%
    15:00 +21°C° 0.3 mm 4 mps 605 mmHg 36%
    16:00 +19°C° 0.5 mm 3 mps 605 mmHg 42%
    17:00 +18°C° 0.5 mm 3 mps 604 mmHg 49%
    18:00 +16°C° 0.5 mm 2 mps 604 mmHg 55%
    19:00 +15°C° 0.8 mm 2 mps 604 mmHg 60%
    20:00 +14°C° 0.8 mm 2 mps 604 mmHg 64%
    21:00 +13°C° 0.8 mm 1 mps 604 mmHg 69%
    22:00 +13°C° 0.2 mm 1 mps 604 mmHg 71%
    23:00 +12°C° 0.2 mm 1 mps 604 mmHg 72%

    Day after tomorrow, 22 May, Tuesday

    Time Temperature Precipitation Wind Pressure Humidity
    00:00 +12°C° 0.2 mm 1 mps 603 mmHg 74%
    01:00 +11°C° 0 mm 1 mps 603 mmHg 75%
    02:00 +11°C° 0 mm 1 mps 603 mmHg 77%
    03:00 +10°C° 0 mm 1 mps 602 mmHg 78%
    04:00 +11°C° 0 mm 1 mps 603 mmHg 75%
    05:00 +11°C° 0 mm 1 mps 603 mmHg 73%
    06:00 +12°C° 0 mm 1 mps 603 mmHg 70%
    07:00 +13°C° 0 mm 1 mps 604 mmHg 63%
    08:00 +15°C° 0 mm 2 mps 605 mmHg 56%
    09:00 +16°C° 0 mm 2 mps 605 mmHg 49%
    10:00 +17°C° 0.1 mm 2 mps 605 mmHg 45%
    11:00 +19°C° 0.1 mm 2 mps 606 mmHg 42%
    12:00 +20°C° 0.1 mm 3 mps 606 mmHg 38%
    13:00 +20°C° 0.3 mm 2 mps 606 mmHg 37%
    14:00 +20°C° 0.3 mm 2 mps 606 mmHg 36%
    15:00 +21°C° 0.3 mm 2 mps 606 mmHg 35%
    16:00 +20°C° 0.9 mm 2 mps 606 mmHg 40%
    17:00 +19°C° 0.9 mm 2 mps 605 mmHg 45%
    18:00 +18°C° 0.9 mm 2 mps 605 mmHg 50%
    19:00 +16°C° 1.6 mm 2 mps 605 mmHg 57%
    20:00 +14°C° 1.6 mm 2 mps 605 mmHg 64%
    21:00 +13°C° 1.6 mm 2 mps 604 mmHg 70%
    22:00 +13°C° 0.3 mm 2 mps 604 mmHg 71%
    23:00 +12°C° 0.3 mm 2 mps 604 mmHg 71%

    23 May, Wednesday

    Time Temperature Precipitation Wind Pressure Humidity
    00:00 +12°C° 0.3 mm 1 mps 604 mmHg 71%
    01:00 +12°C° 0 mm 1 mps 604 mmHg 72%
    02:00 +11°C° 0 mm 1 mps 604 mmHg 72%
    03:00 +11°C° 0 mm 1 mps 603 mmHg 72%
    04:00 +11°C° 0 mm 1 mps 603 mmHg 70%
    05:00 +12°C° 0 mm 1 mps 604 mmHg 69%
    06:00 +12°C° 0 mm 1 mps 604 mmHg 68%
    07:00 +13°C° 0.1 mm 2 mps 604 mmHg 62%
    08:00 +15°C° 0.1 mm 2 mps 605 mmHg 56%
    09:00 +16°C° 0.1 mm 2 mps 605 mmHg 49%
    10:00 +17°C° 0.1 mm 3 mps 605 mmHg 46%
    11:00 +18°C° 0.1 mm 3 mps 605 mmHg 42%
    12:00 +19°C° 0.1 mm 3 mps 606 mmHg 39%
    13:00 +20°C° 0.3 mm 3 mps 605 mmHg 37%
    14:00 +20°C° 0.3 mm 4 mps 605 mmHg 36%
    15:00 +20°C° 0.3 mm 4 mps 605 mmHg 35%
    16:00 +20°C° 0.4 mm 3 mps 605 mmHg 38%
    17:00 +19°C° 0.4 mm 3 mps 605 mmHg 42%
    18:00 +18°C° 0.4 mm 3 mps 604 mmHg 45%
    19:00 +17°C° 0.3 mm 2 mps 604 mmHg 48%
    20:00 +16°C° 0.3 mm 2 mps 604 mmHg 52%
    21:00 +14°C° 0.3 mm 2 mps 604 mmHg 56%
    22:00 +14°C° 0.1 mm 2 mps 603 mmHg 57%
    23:00 +13°C° 0.1 mm 2 mps 603 mmHg 59%

    24 May, Thursday

    Time Temperature Precipitation Wind Pressure Humidity
    00:00 +13°C° 0.1 mm 1 mps 603 mmHg 60%
    01:00 +12°C° 0 mm 1 mps 602 mmHg 61%
    02:00 +11°C° 0 mm 1 mps 602 mmHg 62%
    03:00 +11°C° 0 mm 1 mps 601 mmHg 63%
    04:00 +11°C° 0 mm 1 mps 601 mmHg 62%
    05:00 +11°C° 0 mm 1 mps 601 mmHg 60%
    06:00 +12°C° 0 mm 1 mps 602 mmHg 59%
    07:00 +13°C° 0 mm 1 mps 602 mmHg 54%
    08:00 +14°C° 0 mm 2 mps 602 mmHg 49%
    09:00 +16°C° 0 mm 2 mps 602 mmHg 43%
    10:00 +17°C° 0 mm 2 mps 602 mmHg 40%
    11:00 +18°C° 0 mm 3 mps 603 mmHg 37%
    12:00 +19°C° 0 mm 3 mps 603 mmHg 34%
    13:00 +19°C° 0.1 mm 3 mps 602 mmHg 33%
    14:00 +19°C° 0.1 mm 4 mps 602 mmHg 32%
    15:00 +20°C° 0.1 mm 4 mps 602 mmHg 31%
    16:00 +19°C° 0.1 mm 3 mps 602 mmHg 33%
    17:00 +19°C° 0.1 mm 3 mps 602 mmHg 34%
    18:00 +18°C° 0.1 mm 3 mps 602 mmHg 35%
    19:00 +17°C° 0.1 mm 2 mps 602 mmHg 39%
    20:00 +15°C° 0.1 mm 2 mps 601 mmHg 42%
    21:00 +14°C° 0.1 mm 1 mps 601 mmHg 46%
    22:00 +13°C° 0.1 mm 1 mps 601 mmHg 47%
    23:00 +13°C° 0.1 mm 1 mps 601 mmHg 49%

    25 May, Friday

    Time Temperature Precipitation Wind Pressure Humidity
    00:00 +12°C° 0.1 mm 1 mps 600 mmHg 50%
    01:00 +11°C° 0 mm 1 mps 600 mmHg 52%
    02:00 +11°C° 0 mm 1 mps 599 mmHg 53%
    03:00 +10°C° 0 mm 1 mps 599 mmHg 55%
    04:00 +11°C° 0 mm 1 mps 599 mmHg 54%
    05:00 +11°C° 0 mm 1 mps 600 mmHg 52%
    06:00 +12°C° 0 mm 1 mps 600 mmHg 51%
    07:00 +13°C° 0 mm 1 mps 601 mmHg 47%
    08:00 +14°C° 0 mm 1 mps 601 mmHg 44%
    09:00 +15°C° 0 mm 1 mps 602 mmHg 40%
    10:00 +16°C° 0 mm 1 mps 602 mmHg 39%
    11:00 +18°C° 0 mm 1 mps 602 mmHg 38%
    12:00 +18°C° 0 mm 2 mps 602 mmHg 37%
    13:00 +18°C° 0.1 mm 2 mps 602 mmHg 37%
    14:00 +19°C° 0.1 mm 2 mps 602 mmHg 37%
    15:00 +19°C° 0.1 mm 2 mps 602 mmHg 37%
    16:00 +18°C° 0.2 mm 2 mps 602 mmHg 39%
    17:00 +18°C° 0.2 mm 2 mps 602 mmHg 41%
    18:00 +18°C° 0.2 mm 2 mps 602 mmHg 44%
    19:00 +16°C° 0.2 mm 2 mps 602 mmHg 49%
    20:00 +15°C° 0.2 mm 1 mps 601 mmHg 54%
    21:00 +14°C° 0.2 mm 1 mps 601 mmHg 59%
    22:00 +13°C° 0 mm 1 mps 601 mmHg 60%
    23:00 +13°C° 0 mm 1 mps 601 mmHg 61%
    Show more